Tracking 25648 objects as of 17-May-2022
HD Live streaming from Space Station
objects crossing your sky now

COSMOS 2251 DEB

Track COSMOS 2251 DEB now!
10-day predictions


NORAD ID: 35038
Int'l Code: 1993-036AHB
Perigee: 764.2 km
Apogee: 953.7 km
Inclination: 74.1 °
Period: 102.0 minutes
Semi major axis: 7229 km
RCS: 0.0088 m2 (small)
Launch date: June 16, 1993
Source: Commonwealth of Independent States (former USSR) (CIS)
Launch site: PLESETSK MISSILE AND SPACE COMPLEX (PKMTR)

Note: This is SATELLITE DEBRIS
aabbcc
Your satellite tracking list
Your tracking list is empty




NASA's NSSDC Master Catalog

Two Line Element Set (TLE):
1 35038U 93036AHB 22135.57434122  .00002039  00000-0  10348-2 0  9993
2 35038  74.1138 202.5953 0131031 165.4782 265.4537 14.12209050670428
Source of the keplerian elements: AFSPC